Location: Isola Pescaroli
(45.0500°N, 10.1667°E)
Time: 05:53:47
(UTC+00:00)

BREEZE-M DEB (TANK) - Pass Details

Date: 03 March 2021
Orbit: 308 x 15403 km, 49.5° (Epoch: 12 April)

Event Time Altitude Azimuth Distance (km) Brightness Sun altitude
Rises 19:46:57 0° 292° (WNW) 2,252 6.7 -28.2°
Reaches altitude 10° 19:48:18 10° 297° (WNW) 1,608 5.6 -28.4°
Enters shadow 19:50:22 45° 322° (NW) 867 3.5 -28.7°
